Regional Weather Roundup
Issued by NWS Mobile, AL

Home | Current Version | Previous Version | Text Only | Print | Product List | Glossary On
Versions: 1 2 3 4 5 6 7 8 9 10 11 12 13 14 15 16 17 18 19 20 21 22 23 24 25 26
000
ASUS44 KMOB 210712
RWRMOB
REGIONAL WEATHER ROUNDUP
NATIONAL WEATHER SERVICE MOBILE AL
200 AM CDT SAT APR 21 2018

NOTE: "FAIR" INDICATES FEW OR NO CLOUDS BELOW 12,000 FEET WITH NO
      SIGNIFICANT WEATHER AND/OR OBSTRUCTIONS TO VISIBILITY.

  * THESE STATIONS ARE PART OF THE UNIVERSITY OF SOUTH ALABAMA
    MESONET AND ARE NOT UNDER NWS OR FAA QUALITY CONTROL.

ALZ061>064-210800-
COASTAL ALABAMA

CITY           SKY/WX    TMP DP  RH WIND       PRES   REMARKS
MOBILE REG APT FAIR      56  48  74 MISG      30.17S
BROOKLEY FIELD FAIR      64  53  67 E13       30.18F
USA CAMPUS*    NOT AVBL
DOG RIVER*     NOT AVBL


CITY           SKY/WX    TMP DP  RH WIND       PRES   REMARKS
GULF SHORES    FAIR      49  49  99 CALM      30.16F

$$

ALZ051>060-210800-
INTERIOR SOUTHWEST AND SOUTH CENTRAL ALABAMA

CITY           SKY/WX    TMP DP  RH WIND       PRES   REMARKS
GREENVILLE     FAIR      50  43  77 CALM      30.20F
EVERGREEN      FAIR      49  45  86 CALM      30.20F
ATMORE*          N/A     55  48  76 E5        30.94F
ANDALUSIA/OPP  FAIR      54  45  71 E3        30.19F
ANDALUSIA*       N/A     54  45  71 E5        30.19S
FLORALA APT    FAIR      54  44  69 NE5       30.22F
FLORALA*       NOT AVBL

$$

FLZ001>006-210800-
WESTERN FLORIDA PANHANDLE

CITY           SKY/WX    TMP DP  RH WIND       PRES   REMARKS
PENSACOLA      FAIR      60  48  64 N6        30.16F
NAS PENSACOLA  MOCLDY    64  47  53 E9        30.15F
MILTON         FAIR      56  46  69 NE5       30.17F
WHTNG S FIELD  FAIR      56  46  69 NE8       30.17F


CITY           SKY/WX    TMP DP  RH WIND       PRES   REMARKS
JAY*           NOT AVBL
DUKE FIELD     FAIR      59  43  56 E7        30.17F
CRESTVIEW      FAIR      49  46  90 NE3       30.19F
VALPARAISO     MOCLDY    63  45  52 E9        30.16F
DESTIN         MOCLDY    66  48  52 E9        30.16F

$$

MSZ076-079-210800-
INTERIOR SOUTHEAST MISSISSIPPI

CITY           SKY/WX    TMP DP  RH WIND       PRES   REMARKS
LEAKESVILLE*   NOT AVBL
AGRICOLA*        N/A     55  48  76 E3        30.16

$$

MARINE OBSERVATIONS

STATION/POSITION TIME  TEMP    WIND        PRES    WAVE
                       AIR SEA DIR/SP/G            HT/PER
                 (UTC) (F)     (DEG/KT/KT) (MB)    (FT/S)
PETIT BOIS ISLND 0648           40/  4/  5 1021.8F
GRAND BAY        0545   57      30/  3     1022.0F
KATRINA CUT      0630   63      70/  5     1022.0S
CEDAR POINT      0630   64      70/  6       N/A
E DAUPHIN ISLAND 0700   65      60/  6/  7 1021.2F
MIDDLE BAY LIGHT 0630   62      90/  8     1021.3F
USCG MOBILE BAY  0642      67  100/ 13/ 15 1021.6F
STATE DOCKS      0642      65              1021.6F
MEAHER PARK      0630   62      90/  6     1022.0F
WEEKS BAY        0545   53                 1022.0S
FORT MORGAN      0648           80/  7/  8   N/A
12 S ORANGE BCH  0650   67      50/  8/ 10 1021.0F   1/ 4
PENSACOLA BAY    0642      71   80/  5/ 10 1021.3F
64 S DAUPHIN ISL 0700           70/  6/ 10 1020.9
67 S FORT MORGAN 0630   65                 1020.7F

$$

SELECTED LOCATIONS ACROSS THE REGION

CITY           SKY/WX    TMP DP  RH WIND       PRES   REMARKS
NEW ORLEANS    MOCLDY    55  52  89 CALM      30.14F
GULFPORT       FAIR      53  49  86 CALM      30.15F
PASCAGOULA AP  FAIR      48  46  93 CALM      30.16S
PASCAGOULA*    NOT AVBL
HATTIESBURG    FAIR      48  47  96 CALM      30.18F
LAUREL         FAIR      51  45  79 N3        30.18F
MERIDIAN       FAIR      47  44  90 CALM      30.20F
JACKSON        FAIR      48  44  86 CALM      30.16F
MONTGOMERY     FAIR      52  43  71 E3        30.23F
TROY           FAIR      45  44  97 CALM      30.22F
ASHFORD*         N/A     54  45  71 E5        30.19S
DOTHAN         FAIR      59  41  51 E9        30.23F
PANAMA CITY    FAIR      57  49  74 NE5       30.17F

$$





USA.gov is the U.S. government's official web portal to all federal, state and local government web resources and services.